Home   Weather   33°34'N, 117°15'W   Past weeks
Flag for USA

Past Weather in 33°34'N, 117°15'W, USA — Yesterday and Last 2 Weeks

Now
70 °F

Sunny.


Feels Like: 75 °F
Forecast: 77 / 44 °F
Wind: 12 mph from West

Location: Oceanside - Camp Pendleton

Current Time: Oct 13, 2019 at 4:11:53 pm

Latest Report: Oct 13, 2019 at 2:55 pm


Visibility: 10 mi

Pressure: 29.83 "Hg

Humidity: 64%

Dew Point: 57 °F

Location of 33°34'N, 117°15'WLocation

Past Weather in 33°34'N, 117°15'W — Graph

°F

33°34'N, 117°15'W Temperature Yesterday

Maximum temperature yesterday: 79 °F (at 11:55 am)
Minimum temperature yesterday: 42 °F (at 2:55 am)
Average temperature yesterday: 60 °F

High & Low Weather Summary for the Past Weeks

 TemperatureHumidityPressure
High89 °F (Oct 11, 12:55 pm)93% (Oct 12, 10:55 pm)30.04 "Hg (Oct 12, 10:55 pm)
Low40 °F (Oct 4, 5:55 am)4% (Oct 11, 11:55 am)29.76 "Hg (Sep 28, 4:55 pm)
Average62 °F65%29.89 "Hg
* Reported Sep 28 2:55 pm — Oct 13 2:55 pm, 33°34'N, 117°15'W. Weather by CustomWeather, © 2019

Note: Actual official high and low records may vary slightly from our data, if they occured in-between our weather recording intervals... More about our weather records

Advertising

33°34'N, 117°15'W Weather History for the Previous 24 Hours

Scroll right to see more
 ConditionsComfort  
Time TempWeatherWind HumidityBarometerVisibility
2:55 pm
Sun, Oct 13
70 °FSunny.12 mph64%29.83 "Hg10 mi
1:55 pm72 °FSunny.12 mph59%29.83 "Hg10 mi
12:55 pm72 °FSunny.9 mph59%29.85 "Hg10 mi
11:55 am72 °FSunny.12 mph57%29.86 "Hg10 mi
10:55 am70 °FSunny.5 mph61%29.88 "Hg10 mi
9:55 am63 °FPassing clouds.No wind75%29.89 "Hg10 mi
9:38 am60 °FPartly sunny.No wind72%29.89 "Hg10 mi
8:55 am53 °FLow clouds.No wind74%29.89 "Hg10 mi
8:13 am49 °FLow clouds.No wind74%29.89 "Hg10 mi
7:55 am48 °FLow clouds.No wind77%29.88 "Hg10 mi
7:04 am44 °FPartly sunny.3 mph82%29.86 "Hg10 mi
6:55 am43 °FScattered clouds.No wind82%29.86 "Hg10 mi
6:42 am43 °FPassing clouds.3 mph82%29.86 "Hg10 mi
6:10 am44 °FPassing clouds.3 mph82%29.86 "Hg10 mi
5:55 am43 °FPassing clouds.No wind86%29.85 "Hg10 mi
4:55 am44 °FClear.No wind85%29.83 "Hg10 mi
3:55 am45 °FClear.5 mph82%29.84 "Hg10 mi
2:55 am45 °FClear.No wind86%29.84 "Hg10 mi
1:55 am49 °FClear.3 mph84%29.85 "Hg10 mi
12:55 am50 °FClear.3 mph83%29.85 "Hg10 mi
11:55 pm
Sat, Oct 12
50 °FClear.No wind86%29.85 "Hg10 mi
10:55 pm52 °FClear.3 mph93%29.85 "Hg10 mi
9:55 pm54 °FClear.No wind83%29.85 "Hg10 mi
8:55 pm57 °FClear.3 mph83%29.85 "Hg10 mi
7:55 pm60 °FClear.No wind83%29.85 "Hg10 mi
6:55 pm65 °FClear.6 mph78%29.83 "Hg10 mi
5:55 pm68 °FSunny.9 mph68%29.83 "Hg10 mi
4:55 pm71 °FSunny.7 mph61%29.83 "Hg10 mi
Weather by CustomWeather, © 2019

See weather overview